Oakland, CA

11:19 AM PDT on June 23, 2018 (GMT -0700)
Metro Oakland International

Weather History for KOAK - November, 2017

Change the Weather History Date:

Friday, November 10, 2017

  Actual Average Record
Temperature  
Mean Temperature 56 °F 56 °F  
Max Temperature 62 °F 65 °F 79 °F (1955)
Min Temperature 49 °F 47 °F 39 °F (2006)
Degree Days  
Heating Degree Days 9 9  
Month to date heating degree days 90 83  
Since 1 July heating degree days 283 435  
Cooling Degree Days 0 0  
Month to date cooling degree days 0 0  
Year to date cooling degree days 312 137  
Growing Degree Days 8 (Base 50)    
Moisture  
Dew Point 55 °F    
Average Humidity 89    
Maximum Humidity 100    
Minimum Humidity 78    
Precipitation  
Precipitation 0.10 in 0.07 in 0.97 in (1964)
Month to date precipitation 0.55 0.76  
Year to date precipitation 20.80 15.46  
Sea Level Pressure  
Sea Level Pressure 30.06 in    
Wind  
Wind Speed 6 mph (South)    
Max Wind Speed 13 mph    
Max Gust Speed 15 mph    
Visibility 9 miles    
Events Fog , Rain    
T = Trace of Precipitation, MM = Missing Value Source: NWS Daily Summary

Daily Weather History Graph

Daily Weather History Graph

Search for Another Location

Airport or City:

Astronomy

Nov. 10, 2017 Rise Set
Actual Time 6:44 AM PST 5:01 PM PST
Civil Twilight 6:16 AM PST 5:28 PM PST
Nautical Twilight 5:44 AM PST 6:00 PM PST
Astronomical Twilight 5:13 AM PST 6:31 PM PST
Moon 11:52 PM PST (11/10) 12:59 PM PST (11/10)
Length of Visible Light 11h 12m
Length of Day
10h 17m
Waning Gibbous, 50% of the Moon is Illuminated
Nov 10
Waning Gibbous
Nov 10
Last Quarter
Nov 18
New
Nov 26
First Quarter
Dec 3
Full

Hourly Weather History & Observations

Time (PST) Temp. Dew Point Humidity Pressure Visibility Wind Dir Wind Speed Gust Speed Precip Events Conditions
12:53 AM 54.0 °F 53.1 °F 97% 30.06 in 10.0 mi ESE 5.8 mph - N/A   Partly Cloudy
1:53 AM 54.0 °F 52.0 °F 93% 30.05 in 10.0 mi ESE 4.6 mph - N/A   Mostly Cloudy
2:53 AM 55.0 °F 54.0 °F 96% 30.04 in 10.0 mi SE 10.4 mph - N/A   Overcast
3:53 AM 55.0 °F 54.0 °F 96% 30.05 in 10.0 mi SSE 9.2 mph - N/A   Mostly Cloudy
4:53 AM 55.0 °F 54.0 °F 96% 30.05 in 10.0 mi SE 9.2 mph - N/A   Overcast
5:53 AM 54.0 °F 54.0 °F 100% 30.04 in 10.0 mi SE 8.1 mph - N/A   Overcast
6:53 AM 55.0 °F 54.0 °F 96% 30.04 in 7.0 mi SE 8.1 mph - N/A   Overcast
7:53 AM 55.0 °F 54.0 °F 96% 30.06 in 7.0 mi SE 8.1 mph - 0.00 in Rain Light Rain
8:53 AM 55.9 °F 55.0 °F 97% 30.07 in 10.0 mi SE 6.9 mph - 0.01 in Rain Light Rain
9:53 AM 59.0 °F 54.0 °F 83% 30.07 in 10.0 mi SE 8.1 mph - 0.00 in   Scattered Clouds
10:53 AM 62.1 °F 55.0 °F 78% 30.07 in 10.0 mi SSE 9.2 mph - N/A   Overcast
11:49 AM 60.8 °F 55.4 °F 82% 30.05 in 10.0 mi South 4.6 mph - N/A   Overcast
11:53 AM 61.0 °F 55.9 °F 83% 30.06 in 10.0 mi SSW 3.5 mph - N/A   Overcast
12:23 PM 59.0 °F 57.0 °F 93% 30.05 in 3.0 mi SW 4.6 mph - 0.06 in Rain Light Rain
12:53 PM 60.1 °F 57.9 °F 93% 30.04 in 10.0 mi SW 3.5 mph - 0.07 in   Overcast
1:53 PM 61.0 °F 57.9 °F 90% 30.03 in 10.0 mi West 4.6 mph - N/A   Scattered Clouds
2:53 PM 62.1 °F 57.9 °F 86% 30.04 in 10.0 mi WSW 8.1 mph - 0.00 in Rain Light Rain
3:53 PM 61.0 °F 57.9 °F 90% 30.04 in 10.0 mi West 5.8 mph - 0.02 in   Scattered Clouds
4:53 PM 60.1 °F 57.9 °F 93% 30.04 in 10.0 mi West 8.1 mph - N/A   Mostly Cloudy
5:53 PM 57.9 °F 57.0 °F 97% 30.05 in 10.0 mi West 4.6 mph - N/A   Scattered Clouds
6:53 PM 54.0 °F 53.1 °F 97% 30.06 in 10.0 mi NE 5.8 mph - N/A   Partly Cloudy
7:53 PM 55.9 °F 55.9 °F 100% 30.07 in 10.0 mi Calm Calm - N/A   Partly Cloudy
8:53 PM 55.9 °F 55.9 °F 100% 30.08 in 10.0 mi WNW 3.5 mph - N/A   Scattered Clouds
9:53 PM 55.0 °F 55.0 °F 100% 30.09 in 10.0 mi NW 4.6 mph - N/A   Scattered Clouds
10:53 PM 54.0 °F 54.0 °F 100% 30.09 in 10.0 mi Calm Calm - N/A Fog Shallow Fog
11:34 PM 54.0 °F 54.0 °F 100% 30.09 in 10.0 mi WNW 3.5 mph - N/A Fog Shallow Fog
11:53 PM 52.0 °F 52.0 °F 100% 30.09 in 7.0 mi Calm Calm - N/A Fog Shallow Fog